TimeCDT,TemperatureF,Dew PointF,Humidity,Sea Level PressureIn,VisibilityMPH,Wind Direction,Wind SpeedMPH,Gust SpeedMPH,PrecipitationIn,Events,Conditions,WindDirDegrees,DateUTC
12:53 AM,71.1,50.0,47,29.91,10.0,ESE,10.4,-,N/A,,Clear,110,2012-10-03 05:53:00
1:53 AM,66.9,52.0,59,29.91,10.0,East,5.8,-,N/A,,Clear,90,2012-10-03 06:53:00
2:53 AM,66.0,51.1,59,29.91,10.0,East,6.9,-,N/A,,Clear,90,2012-10-03 07:53:00
3:53 AM,64.9,52.0,63,29.89,10.0,East,8.1,-,N/A,,Clear,100,2012-10-03 08:53:00
4:53 AM,64.9,52.0,63,29.90,10.0,East,9.2,-,N/A,,Clear,100,2012-10-03 09:53:00
5:53 AM,64.9,51.1,61,29.90,10.0,East,9.2,-,N/A,,Clear,100,2012-10-03 10:53:00
6:53 AM,64.0,52.0,65,29.90,10.0,ESE,5.8,-,N/A,,Clear,110,2012-10-03 11:53:00
7:53 AM,63.0,52.0,67,29.91,10.0,East,8.1,-,N/A,,Clear,100,2012-10-03 12:53:00
8:53 AM,66.9,52.0,59,29.92,10.0,ESE,10.4,-,N/A,,Clear,110,2012-10-03 13:53:00
9:53 AM,72.0,53.1,51,29.92,10.0,SE,8.1,-,N/A,,Clear,130,2012-10-03 14:53:00
10:53 AM,75.9,55.9,50,29.92,10.0,SE,13.8,23.0,N/A,,Clear,140,2012-10-03 15:53:00
11:53 AM,80.1,55.0,42,29.91,10.0,SSE,16.1,-,N/A,,Clear,150,2012-10-03 16:53:00
12:53 PM,82.9,53.1,36,29.88,10.0,SSE,16.1,20.7,N/A,,Clear,150,2012-10-03 17:53:00
1:53 PM,87.1,54.0,32,29.86,10.0,SE,12.7,19.6,N/A,,Clear,140,2012-10-03 18:53:00
2:53 PM,89.1,53.1,29,29.83,10.0,SE,10.4,19.6,N/A,,Clear,130,2012-10-03 19:53:00
3:53 PM,91.0,54.0,28,29.82,10.0,SE,10.4,19.6,N/A,,Clear,130,2012-10-03 20:53:00
4:53 PM,91.0,54.0,28,29.82,10.0,SE,13.8,20.7,N/A,,Clear,130,2012-10-03 21:53:00
5:53 PM,90.0,55.0,30,29.82,10.0,ESE,13.8,20.7,N/A,,Clear,120,2012-10-03 22:53:00
6:53 PM,88.0,57.9,36,29.83,10.0,East,11.5,-,N/A,,Clear,100,2012-10-03 23:53:00
7:53 PM,84.9,59.0,41,29.85,10.0,East,10.4,-,N/A,,Clear,90,2012-10-04 00:53:00
8:53 PM,82.0,61.0,49,29.86,10.0,East,9.2,-,N/A,,Clear,90,2012-10-04 01:53:00
9:53 PM,80.1,61.0,52,29.88,10.0,East,10.4,-,N/A,,Clear,90,2012-10-04 02:53:00
10:53 PM,79.0,60.1,52,29.89,10.0,ESE,9.2,-,N/A,,Clear,110,2012-10-04 03:53:00